Theta_e
330 328 324 325 327 326 327 325 324 326 326 324 323 325 328 328 334 338 342 345 342 344 349 347 345 344 344 344 345 345 345 343 343 343 342 342 341 340 340 339 339 336 338 340 339 338 336 335 330
330 324 324 326 326 328 327 325 325 324 324 323 323 323 326 333 336 343 345 345 343 347 348 348 344 342 345 344 345 345 344 342 342 341 341 340 340 340 339 338 335 335 337 337 338 338 337 331 330
328 324 326 327 327 328 326 325 324 323 322 323 325 324 328 333 338 343 344 344 344 347 348 349 344 343 344 345 345 344 342 340 339 339 338 337 337 338 336 334 332 333 334 336 337 337 332 329 331
324 324 324 328 329 326 325 323 322 323 323 322 323 326 327 336 338 343 345 344 345 347 348 348 344 343 344 344 344 342 340 339 338 337 336 335 334 334 333 331 332 330 333 335 337 337 330 328 331
323 326 329 330 328 326 325 323 322 323 323 323 321 325 326 338 342 345 346 346 346 346 348 349 343 342 343 343 342 342 340 338 337 336 335 334 333 332 332 333 333 330 331 334 338 334 330 328 328
325 326 329 330 328 326 325 324 323 323 323 322 321 324 327 341 345 346 346 346 346 347 347 348 344 342 343 342 341 341 339 338 337 336 335 334 332 332 330 332 333 330 336 336 335 332 330 326 326
325 327 328 326 327 326 325 324 324 323 323 322 321 324 328 340 345 345 346 346 346 347 346 346 347 344 342 341 340 339 339 338 338 336 336 334 332 331 330 331 332 332 335 335 333 332 328 327 324
321 325 326 325 325 326 324 323 322 323 323 321 321 323 326 337 345 344 344 346 346 346 345 346 346 344 343 341 338 338 339 340 339 337 335 333 329 327 328 331 332 332 333 332 330 328 326 326 323
319 322 322 324 324 323 321 322 321 320 321 320 321 323 328 334 343 344 344 345 344 345 344 344 344 343 341 340 341 339 339 337 339 337 334 332 328 327 326 327 331 332 332 330 327 328 327 324 324
319 320 320 319 321 321 319 320 321 321 320 321 321 324 334 337 343 344 342 341 342 343 343 344 343 341 340 339 338 339 337 336 335 336 334 332 328 327 326 326 328 330 330 326 326 328 326 326 327
320 321 320 321 319 319 320 321 322 322 323 322 322 324 335 338 341 343 342 342 342 342 343 343 343 342 340 338 336 336 336 334 334 334 334 332 329 329 326 327 328 329 326 327 327 329 328 328 327
322 319 319 319 321 322 322 321 322 323 322 321 323 322 326 339 340 341 341 342 342 342 342 342 342 342 340 339 336 333 333 333 333 333 333 332 330 331 329 326 327 328 327 328 329 329 329 328 325
323 320 319 318 320 321 320 322 321 322 322 321 321 321 322 327 339 339 340 341 341 342 342 341 341 341 341 340 338 334 332 332 331 331 332 331 330 331 332 331 328 327 327 328 329 329 327 328 324
321 321 320 319 319 320 320 320 320 320 321 321 321 321 321 321 323 336 340 340 340 340 341 341 341 340 341 341 339 336 334 332 331 331 331 331 330 331 333 334 333 329 327 327 328 328 326 325 322
320 322 321 320 319 319 319 320 320 319 319 319 319 319 320 320 320 321 324 334 341 342 342 341 341 340 340 341 340 338 336 334 332 331 331 331 332 333 333 333 333 333 327 327 327 328 325 322 319
322 321 324 320 319 319 318 317 317 318 318 318 318 318 318 319 319 319 320 320 321 329 338 342 341 341 341 340 341 340 338 336 334 333 332 331 331 332 332 332 332 332 332 328 327 326 323 320 316
321 321 320 321 319 318 319 317 316 317 317 318 318 319 318 318 317 317 318 318 319 319 320 328 337 341 341 341 340 340 339 338 336 335 333 332 331 331 331 331 331 331 332 330 327 325 324 320 316
322 321 320 319 320 319 319 318 318 318 317 319 318 318 318 318 318 317 317 317 317 318 318 318 324 334 338 339 338 338 339 338 338 337 336 334 332 332 331 330 330 330 332 331 329 324 322 321 319
317 319 319 318 316 321 321 320 318 318 318 318 317 317 317 317 316 315 315 315 316 316 316 317 317 323 333 339 337 336 336 338 336 338 338 336 334 332 331 331 331 330 330 332 330 325 320 316 316
318 320 318 316 317 316 317 318 317 317 317 316 316 316 316 315 314 313 311 311 313 314 315 316 316 317 322 332 337 337 338 337 337 335 336 337 336 334 332 332 331 330 329 330 330 326 320 319 312
320 318 318 318 314 314 315 318 318 312 310 310 309 310 311 311 311 310 310 309 310 311 312 314 315 315 317 323 330 335 335 336 336 335 335 334 335 335 334 332 332 331 329 328 329 325 320 318 311
322 318 318 316 319 322 313 319 315 310 311 312 313 313 313 313 312 312 312 310 309 310 309 309 310 312 313 317 325 331 332 334 334 335 335 336 334 334 334 333 333 331 328 327 327 324 321 320 313
321 315 317 317 318 317 316 319 314 311 313 314 314 315 314 314 313 313 312 311 311 311 310 309 308 309 311 312 319 328 331 331 332 334 334 335 334 333 331 332 332 331 328 327 326 323 321 319 318
313 312 312 313 316 322 316 316 313 311 312 313 314 314 315 315 315 313 312 313 313 313 312 311 310 309 308 311 313 321 327 330 331 332 333 333 333 331 331 330 329 329 328 326 325 322 320 319 318
313 319 322 323 322 320 311 314 313 311 310 313 314 315 315 316 316 315 314 313 313 314 313 311 311 311 310 310 310 312 319 326 329 330 331 332 332 330 329 329 327 328 328 326 324 321 318 317 317
316 317 320 319 319 315 311 315 312 308 308 311 311 311 313 316 316 315 315 314 312 313 313 314 313 312 310 310 310 311 313 316 324 328 329 330 330 330 328 328 326 326 325 324 322 320 317 315 314
314 319 309 313 309 314 313 311 309 308 309 310 311 312 315 316 315 315 314 313 311 312 312 312 311 312 312 313 313 312 312 312 314 320 324 326 327 328 328 326 325 324 324 322 320 317 315 313 311
314 310 316 316 318 316 311 311 314 311 312 312 313 313 313 315 315 313 312 312 312 312 310 308 308 309 310 310 311 312 313 313 314 315 316 318 320 321 320 320 320 321 320 319 316 314 312 309 307
312 314 311 312 311 314 311 310 311 312 313 311 311 310 313 315 314 311 311 310 311 308 306 306 305 306 307 308 309 309 310 310 311 312 312 312 313 313 314 315 316 316 315 313 311 310 308 304 301
311 313 311 318 315 311 314 311 308 312 309 308 309 310 313 313 310 310 311 311 307 305 304 304 303 304 305 306 308 308 309 310 310 310 309 310 311 311 312 312 311 309 308 306 305 301 298 299 294
Wind_Speed
6 5 3 4 6 5 11 6 1 3 4 2 3 7 2 8 3 1 2 8 13 23 22 21 21 20 19 19 19 18 15 14 14 13 11 11 10 9 9 7 7 7 9 9 14 14 12 11 11
8 5 4 2 7 10 11 9 7 7 2 8 3 6 8 1 2 2 5 5 18 21 21 20 20 20 20 19 19 18 16 13 11 11 11 10 9 8 8 6 5 6 8 7 14 15 12 10 11
8 7 5 5 9 15 11 9 9 4 3 2 1 3 2 1 2 2 2 13 20 18 20 19 21 21 21 19 18 18 15 12 10 10 9 6 8 8 7 7 6 6 11 9 12 15 11 10 11
9 6 3 10 16 17 15 2 3 7 4 1 6 4 3 3 2 2 11 18 21 18 18 20 22 21 20 19 18 16 15 12 9 8 7 7 6 7 7 10 7 8 11 11 11 14 11 11 10
7 4 10 15 22 17 13 6 7 9 1 1 7 2 3 3 3 8 15 19 18 18 18 20 20 19 18 18 18 18 14 10 10 9 8 7 6 8 10 10 7 9 10 12 14 12 9 9 8
7 7 12 18 23 20 13 13 13 11 5 4 4 5 1 3 5 9 14 17 17 18 17 18 19 19 18 16 16 14 13 11 11 10 10 9 8 9 12 12 9 12 13 13 11 9 8 7 8
14 11 21 20 21 19 18 16 15 13 9 8 4 5 2 4 6 9 12 15 17 17 16 17 18 19 19 17 15 14 12 13 12 9 10 10 10 10 12 12 13 10 10 11 9 8 7 7 8
10 9 21 20 18 23 16 12 8 16 17 1 3 5 5 3 8 10 11 15 15 16 17 16 16 16 16 14 15 16 15 12 13 9 10 11 10 10 11 15 11 12 11 9 8 7 8 8 9
5 9 17 23 21 17 7 14 9 3 9 8 7 4 3 2 9 11 12 14 14 14 17 17 16 16 14 13 15 16 14 14 11 12 11 11 9 10 10 12 15 12 11 9 8 8 9 9 9
11 14 21 14 12 12 11 13 12 9 12 12 10 5 2 7 11 13 14 14 14 14 17 17 17 15 14 13 12 15 13 14 14 15 14 12 11 11 11 12 14 13 11 10 10 10 9 8 6
13 17 12 6 7 7 11 11 7 10 12 13 13 5 2 6 11 13 13 13 14 13 15 16 16 16 15 13 13 14 14 14 15 16 15 14 13 11 11 10 11 10 11 9 9 9 8 8 7
11 16 8 6 5 6 8 7 9 11 4 5 7 4 1 6 10 13 14 13 14 15 16 16 17 16 16 14 15 14 15 15 15 16 16 15 14 13 12 12 12 11 11 11 11 10 9 8 7
16 6 14 9 5 4 6 7 9 11 8 4 3 2 2 2 10 12 12 12 13 15 15 16 16 16 17 17 15 15 16 16 16 16 18 17 17 16 14 13 12 12 11 12 11 10 10 9 8
9 15 5 14 10 4 6 7 5 9 12 11 9 10 8 7 6 11 16 16 15 14 16 16 18 18 18 18 17 16 15 15 15 16 17 20 17 16 16 14 14 13 13 12 12 12 11 10 9
5 12 18 13 10 9 9 16 18 13 10 10 9 11 10 9 9 12 12 16 17 17 17 18 18 19 19 21 19 18 16 16 17 16 17 20 19 17 16 16 15 15 14 13 13 12 11 10 9
16 7 10 15 19 6 11 21 2 7 20 18 17 15 14 15 15 16 15 14 12 13 16 17 18 20 22 25 21 20 18 17 18 18 18 21 21 20 19 17 16 16 16 15 15 14 13 12 11
15 13 20 7 19 14 17 10 10 5 8 11 10 11 13 15 17 20 20 18 16 15 16 17 20 22 22 22 24 22 20 21 19 19 20 21 23 23 21 19 18 18 18 18 17 16 16 14 12
21 22 13 16 9 20 15 17 4 7 5 9 10 10 11 14 15 16 15 15 18 18 18 19 20 21 22 20 25 24 23 23 21 22 22 21 23 24 24 22 21 20 20 20 19 18 17 15 14
12 17 10 14 6 12 16 12 15 14 14 14 14 14 13 13 11 13 15 15 15 15 16 20 19 22 21 21 22 23 26 26 26 28 23 23 24 25 26 25 23 24 25 24 22 20 19 16 15
12 16 14 3 9 7 6 9 11 14 16 13 14 14 13 10 11 13 14 14 16 17 18 19 20 21 23 23 23 23 21 23 25 25 27 25 25 26 28 29 28 26 26 26 25 23 19 18 19
14 15 13 6 7 3 2 8 11 4 2 3 1 1 0 2 4 4 7 9 10 14 17 18 19 20 21 25 24 21 19 17 17 27 32 35 33 28 30 29 29 27 27 28 29 28 24 21 19
8 6 11 11 10 4 3 3 4 5 7 7 7 6 5 5 5 6 7 7 4 3 7 12 15 17 18 20 24 25 25 23 24 23 24 24 26 35 29 29 29 28 32 30 33 32 32 23 21
4 7 10 6 4 1 5 4 7 8 9 9 7 6 6 5 5 7 8 8 9 9 6 2 7 11 15 16 21 23 25 24 24 24 23 23 23 31 36 28 28 29 29 31 29 35 35 33 23
10 9 10 6 2 3 5 4 8 8 9 8 5 5 5 6 6 6 7 8 10 9 8 8 7 2 6 13 15 20 22 22 21 22 23 23 21 26 31 34 31 31 29 29 31 30 35 35 29
6 10 4 3 3 1 1 4 4 8 4 8 5 5 5 5 6 6 7 7 9 11 11 9 8 5 4 0 9 14 19 21 21 22 20 21 18 21 29 30 31 32 36 31 26 27 30 35 33
14 2 3 5 6 5 3 5 4 2 5 6 1 0 2 5 6 7 8 8 7 9 10 10 11 9 6 3 2 4 9 14 17 18 19 19 19 19 21 24 27 29 30 30 29 28 28 30 30
5 3 2 5 2 2 4 3 2 7 10 5 2 3 3 4 6 7 7 8 7 10 11 11 10 9 9 7 6 5 5 6 8 11 13 15 16 17 15 18 21 26 29 29 28 26 25 21 22
1 8 3 1 5 4 5 4 6 12 10 6 4 2 2 3 5 6 6 8 8 8 9 10 11 10 10 9 7 6 6 6 6 6 8 10 11 11 11 17 19 20 23 26 27 26 22 22 22
4 2 2 1 2 2 4 3 7 17 13 9 4 1 0 2 4 5 6 6 5 7 8 9 11 12 12 11 10 8 7 7 6 6 6 7 7 7 8 11 14 15 17 19 22 23 23 22 21
1 2 3 3 4 1 1 3 6 15 11 2 5 2 1 1 4 4 5 6 6 8 9 10 11 11 11 10 9 9 9 8 8 7 7 6 6 6 6 7 7 9 12 15 17 16 18 20 22
Wind_Direction
224 230 227 220 228 238 232 221 230 184 193 143 314 242 253 316 263 17 42 164 153 156 159 162 170 171 173 172 170 168 162 165 163 150 145 145 144 144 140 142 152 155 157 162 145 133 123 112 106
203 201 204 201 236 221 222 222 215 216 101 321 254 229 243 298 317 46 133 155 154 154 158 162 169 167 172 176 173 169 167 165 161 157 150 146 138 142 145 146 150 165 173 160 156 140 131 115 113
196 201 210 217 228 230 233 211 231 227 303 334 270 253 295 50 69 97 104 151 154 155 158 165 169 167 172 172 169 165 167 158 169 165 161 166 137 143 148 144 131 132 171 167 161 144 134 124 123
181 192 221 228 223 228 229 200 166 178 165 284 336 224 205 34 10 80 142 151 155 159 162 171 169 170 173 169 169 167 160 170 170 175 170 147 142 144 133 117 144 153 162 160 146 142 136 130 125
196 214 219 227 233 225 226 210 161 158 148 262 340 338 306 81 86 131 145 152 158 161 164 164 172 174 174 173 174 169 171 183 182 177 175 163 151 142 144 139 139 148 144 148 135 140 136 132 132
187 226 219 220 226 222 224 215 232 240 247 265 281 294 338 90 122 141 154 160 162 163 166 169 175 174 171 178 177 181 190 191 184 188 171 169 161 156 157 143 140 147 143 141 138 143 142 143 148
221 207 224 228 228 222 220 215 220 230 240 241 267 259 98 135 126 146 159 162 165 165 167 169 172 176 178 183 182 193 192 193 193 198 173 173 174 167 164 161 167 174 153 148 146 149 146 147 153
219 233 228 227 228 234 208 196 226 229 243 158 236 229 199 75 146 148 162 167 169 171 173 175 178 182 184 189 189 196 193 192 191 200 190 189 184 176 171 171 170 166 178 167 165 163 155 154 153
208 220 222 215 223 220 197 209 196 203 216 203 197 267 40 90 153 153 166 171 176 179 181 182 183 186 189 189 190 191 191 202 195 197 204 193 175 170 176 177 185 179 183 176 168 162 168 161 159
203 217 220 223 218 215 180 211 186 187 198 209 205 201 29 165 173 176 179 182 186 184 185 188 188 189 191 193 195 196 202 200 200 197 199 188 183 177 172 176 177 182 185 176 172 176 173 151 166
213 225 199 207 198 183 170 194 188 199 199 204 205 184 138 174 191 196 197 198 197 195 193 191 192 193 195 197 191 195 199 200 200 200 196 193 185 182 174 177 176 179 179 180 179 183 178 188 183
220 228 254 202 168 167 170 176 201 212 173 172 129 85 121 185 199 206 207 204 202 201 200 201 200 198 201 201 200 200 199 201 202 203 199 195 191 188 188 188 188 188 191 192 191 194 196 189 190
223 198 216 228 158 162 135 190 218 229 192 175 238 249 209 219 204 212 217 218 216 212 208 209 207 207 208 208 207 206 206 205 206 203 203 199 199 198 196 197 195 197 199 199 199 200 199 201 199
204 223 202 226 216 213 228 219 216 226 241 233 234 247 241 239 224 213 213 220 220 216 213 211 214 215 212 216 215 212 211 212 208 207 206 203 204 204 205 206 204 203 203 203 203 204 203 203 198
187 206 225 232 220 228 236 255 228 237 230 231 222 240 245 235 227 229 221 224 222 219 218 217 216 216 217 219 221 221 218 212 212 211 211 209 209 211 209 211 212 209 208 206 205 205 206 201 196
200 221 196 214 217 192 189 250 229 234 229 237 243 243 246 248 246 247 241 234 225 225 224 222 219 218 220 222 220 222 222 220 219 216 213 215 215 215 213 213 214 214 210 208 208 207 204 204 202
199 210 214 197 209 199 205 246 219 246 204 223 231 234 241 254 252 250 249 246 242 235 230 227 223 223 224 223 219 219 223 224 224 221 219 218 218 219 217 218 217 213 211 210 211 211 209 204 205
196 211 206 206 181 207 215 236 201 190 227 247 248 246 240 244 252 254 259 250 246 242 238 234 228 227 228 224 224 222 220 222 224 225 221 219 219 219 219 221 220 214 214 212 211 210 208 212 209
210 196 197 219 187 199 223 232 233 252 269 262 259 257 253 247 262 268 262 261 254 247 241 236 231 228 225 220 217 219 222 222 224 224 225 223 221 219 218 221 221 216 216 214 212 210 207 206 200
183 192 197 123 194 213 176 233 233 234 245 260 268 265 267 274 265 270 270 257 249 245 240 238 234 231 227 225 225 228 230 231 232 236 233 226 226 221 219 219 218 214 216 215 213 207 202 210 199
200 200 182 188 154 173 252 248 221 188 201 199 119 160 142 304 310 317 298 273 251 241 240 235 234 233 231 228 230 232 233 234 233 231 237 238 230 226 224 221 220 216 212 212 211 208 204 199 205
172 233 169 145 179 197 228 187 141 120 115 130 115 98 80 59 58 51 42 43 19 282 253 244 241 238 235 230 230 228 226 228 230 235 237 236 231 234 228 227 223 216 212 209 208 207 208 203 199
119 146 138 146 136 190 197 243 121 146 136 127 111 85 66 51 47 53 51 52 52 43 30 296 244 237 234 230 226 231 234 238 238 236 237 236 237 241 237 229 226 223 219 219 213 212 210 209 207
135 91 86 87 114 218 159 249 161 178 160 141 117 79 57 43 46 55 59 55 53 45 40 41 45 40 231 226 226 230 239 241 241 243 243 242 240 244 246 238 231 227 224 223 218 217 217 214 211
185 148 112 147 190 218 158 201 59 151 167 145 120 87 49 32 37 37 36 30 32 31 28 25 22 28 33 186 228 234 239 244 244 246 247 249 247 239 247 245 237 234 233 227 220 219 220 216 211
178 268 177 161 184 137 145 220 140 264 175 152 194 87 44 41 31 25 15 7 12 16 16 12 8 5 357 351 319 250 242 241 242 248 250 254 255 251 250 247 243 243 238 234 227 220 218 217 215
177 201 28 105 67 181 169 190 154 131 153 194 175 153 74 34 19 14 7 1 356 358 3 5 5 359 354 339 318 304 287 268 258 256 254 252 254 253 247 247 253 248 243 238 228 218 214 210 205
227 130 162 320 154 202 185 207 145 169 162 148 137 116 93 24 12 6 359 358 359 3 2 7 12 12 359 353 347 333 323 308 288 273 262 260 261 258 256 252 253 249 242 236 225 218 206 211 209
137 182 63 68 311 210 165 141 154 162 148 119 74 52 84 14 7 356 359 5 29 24 16 9 7 7 11 9 2 1 357 351 342 335 322 307 294 278 261 260 256 243 234 225 214 209 202 198 189
285 203 196 240 183 29 10 94 176 155 149 109 11 348 156 68 21 23 44 52 43 34 29 25 18 13 8 5 9 17 15 11 10 5 1 347 330 308 278 258 236 217 205 201 202 182 179 172 155